Time,TemperatureF,DewpointF,PressureIn,WindDirection,WindDirectionDegrees,WindSpeedMPH,WindSpeedGustMPH,Humidity,HourlyPrecipIn,Conditions,Clouds,dailyrainin,SoftwareType,DateUTC
2013-02-17 00:00:00,40.5,30.8,30.74,SE,141,3.0,7.0,68,0.00,,,0.00,Weather View 32 v70,2013-02-17 06:00:00,
2013-02-17 00:05:00,40.5,30.8,30.74,SSE,163,4.0,7.0,68,0.00,,,0.00,Weather View 32 v70,2013-02-17 06:05:00,
2013-02-17 00:10:00,40.5,30.8,30.74,SSE,163,5.0,7.0,68,0.00,,,0.00,Weather View 32 v70,2013-02-17 06:10:00,
2013-02-17 00:15:00,40.4,30.7,30.74,South,186,3.0,7.0,68,0.00,,,0.00,Weather View 32 v70,2013-02-17 06:15:00,
2013-02-17 00:20:00,40.5,30.8,30.74,SE,141,5.0,7.0,68,0.00,,,0.00,Weather View 32 v70,2013-02-17 06:20:00,
2013-02-17 00:25:00,40.5,30.8,30.74,SSE,163,5.0,7.0,68,0.00,,,0.00,Weather View 32 v70,2013-02-17 06:25:00,
2013-02-17 00:30:00,40.5,30.8,30.73,SE,141,4.0,7.0,68,0.00,,,0.00,Weather View 32 v70,2013-02-17 06:30:00,
2013-02-17 00:35:00,40.5,30.8,30.73,SSE,163,4.0,6.0,68,0.00,,,0.00,Weather View 32 v70,2013-02-17 06:35:00,
2013-02-17 00:40:00,40.7,30.6,30.73,SSE,163,5.0,6.0,67,0.00,,,0.00,Weather View 32 v70,2013-02-17 06:40:00,
2013-02-17 00:45:00,40.8,30.7,30.73,SSE,163,5.0,6.0,67,0.00,,,0.00,Weather View 32 v70,2013-02-17 06:45:00,
2013-02-17 00:50:00,40.8,30.7,30.73,SE,141,4.0,6.0,67,0.00,,,0.00,Weather View 32 v70,2013-02-17 06:50:00,
2013-02-17 00:55:00,40.9,30.4,30.73,SSE,163,3.0,6.0,66,0.00,,,0.00,Weather View 32 v70,2013-02-17 06:55:00,
2013-02-17 01:00:00,41.0,30.5,30.73,SE,141,5.0,7.0,66,0.00,,,0.00,Weather View 32 v70,2013-02-17 07:00:00,
2013-02-17 01:05:00,41.0,30.5,30.72,SSE,163,6.0,8.0,66,0.00,,,0.00,Weather View 32 v70,2013-02-17 07:05:00,
2013-02-17 01:10:00,40.7,30.2,30.73,SE,141,5.0,8.0,66,0.00,,,0.00,Weather View 32 v70,2013-02-17 07:10:00,
2013-02-17 01:15:00,40.7,30.2,30.73,SE,141,4.0,8.0,66,0.00,,,0.00,Weather View 32 v70,2013-02-17 07:15:00,
2013-02-17 01:20:00,40.4,30.3,30.73,SE,141,3.0,8.0,67,0.00,,,0.00,Weather View 32 v70,2013-02-17 07:20:00,
2013-02-17 01:25:00,40.3,30.2,30.73,SE,141,3.0,8.0,67,0.00,,,0.00,Weather View 32 v70,2013-02-17 07:25:00,
2013-02-17 01:30:00,40.3,30.2,30.73,SE,141,5.0,8.0,67,0.00,,,0.00,Weather View 32 v70,2013-02-17 07:30:00,
2013-02-17 01:35:00,40.3,29.8,30.72,SE,141,3.0,8.0,66,0.00,,,0.00,Weather View 32 v70,2013-02-17 07:35:00,
2013-02-17 01:40:00,40.2,29.7,30.72,SE,141,5.0,8.0,66,0.00,,,0.00,Weather View 32 v70,2013-02-17 07:40:00,
2013-02-17 01:45:00,40.0,29.5,30.72,SE,141,4.0,8.0,66,0.00,,,0.00,Weather View 32 v70,2013-02-17 07:45:00,
2013-02-17 01:50:00,39.9,29.8,30.72,SE,141,3.0,8.0,67,0.00,,,0.00,Weather View 32 v70,2013-02-17 07:50:00,
2013-02-17 01:55:00,39.9,29.5,30.72,SE,141,4.0,8.0,66,0.00,,,0.00,Weather View 32 v70,2013-02-17 07:55:00,
2013-02-17 02:00:00,39.8,29.4,30.72,ESE,118,3.0,8.0,66,0.00,,,0.00,Weather View 32 v70,2013-02-17 08:00:00,
2013-02-17 02:05:00,40.1,29.3,30.71,SE,141,5.0,8.0,65,0.00,,,0.00,Weather View 32 v70,2013-02-17 08:05:00,
2013-02-17 02:10:00,40.0,29.2,30.71,SE,141,6.0,8.0,65,0.00,,,0.00,Weather View 32 v70,2013-02-17 08:10:00,
2013-02-17 02:15:00,40.0,29.2,30.71,South,186,6.0,8.0,65,0.00,,,0.00,Weather View 32 v70,2013-02-17 08:15:00,
2013-02-17 02:20:00,39.9,29.1,30.71,SE,141,6.0,8.0,65,0.00,,,0.00,Weather View 32 v70,2013-02-17 08:20:00,
2013-02-17 02:25:00,39.9,29.1,30.71,SSE,163,5.0,8.0,65,0.00,,,0.00,Weather View 32 v70,2013-02-17 08:25:00,
2013-02-17 02:30:00,39.8,29.0,30.70,ESE,118,5.0,8.0,65,0.00,,,0.00,Weather View 32 v70,2013-02-17 08:30:00,
2013-02-17 02:35:00,39.9,28.7,30.70,SE,141,5.0,8.0,64,0.00,,,0.00,Weather View 32 v70,2013-02-17 08:35:00,
2013-02-17 02:40:00,39.6,28.8,30.70,SE,141,5.0,8.0,65,0.00,,,0.00,Weather View 32 v70,2013-02-17 08:40:00,
2013-02-17 02:45:00,39.4,28.6,30.69,SSE,163,3.0,8.0,65,0.00,,,0.00,Weather View 32 v70,2013-02-17 08:45:00,
2013-02-17 02:50:00,39.2,28.8,30.69,SSE,163,5.0,8.0,66,0.00,,,0.00,Weather View 32 v70,2013-02-17 08:50:00,
2013-02-17 02:55:00,39.0,28.6,30.69,South,186,3.0,8.0,66,0.00,,,0.00,Weather View 32 v70,2013-02-17 08:55:00,
2013-02-17 03:00:00,38.9,28.5,30.69,South,186,3.0,8.0,66,0.00,,,0.00,Weather View 32 v70,2013-02-17 09:00:00,
2013-02-17 03:05:00,38.8,28.8,30.69,SSE,163,6.0,8.0,67,0.00,,,0.00,Weather View 32 v70,2013-02-17 09:05:00,
2013-02-17 03:10:00,38.7,28.7,30.68,SE,141,3.0,8.0,67,0.00,,,0.00,Weather View 32 v70,2013-02-17 09:10:00,
2013-02-17 03:15:00,38.8,28.8,30.68,SE,141,5.0,8.0,67,0.00,,,0.00,Weather View 32 v70,2013-02-17 09:15:00,
2013-02-17 03:20:00,38.8,28.8,30.68,SSE,163,5.0,8.0,67,0.00,,,0.00,Weather View 32 v70,2013-02-17 09:20:00,
2013-02-17 03:25:00,38.8,28.8,30.68,SE,141,5.0,8.0,67,0.00,,,0.00,Weather View 32 v70,2013-02-17 09:25:00,
2013-02-17 03:30:00,38.8,28.8,30.68,South,186,4.0,8.0,67,0.00,,,0.00,Weather View 32 v70,2013-02-17 09:30:00,
2013-02-17 03:35:00,39.0,29.0,30.68,South,186,7.0,8.0,67,0.00,,,0.00,Weather View 32 v70,2013-02-17 09:35:00,
2013-02-17 03:40:00,38.9,28.9,30.67,SSE,163,3.0,8.0,67,0.00,,,0.00,Weather View 32 v70,2013-02-17 09:40:00,
2013-02-17 03:45:00,38.9,28.9,30.67,SE,141,6.0,8.0,67,0.00,,,0.00,Weather View 32 v70,2013-02-17 09:45:00,
2013-02-17 03:50:00,38.8,28.8,30.67,SSE,163,4.0,8.0,67,0.00,,,0.00,Weather View 32 v70,2013-02-17 09:50:00,
2013-02-17 03:55:00,38.7,29.0,30.67,SE,141,5.0,8.0,68,0.00,,,0.00,Weather View 32 v70,2013-02-17 09:55:00,
2013-02-17 04:00:00,38.6,28.9,30.67,SSE,163,5.0,8.0,68,0.00,,,0.00,Weather View 32 v70,2013-02-17 10:00:00,
2013-02-17 04:05:00,38.6,28.9,30.67,SSE,163,4.0,8.0,68,0.00,,,0.00,Weather View 32 v70,2013-02-17 10:05:00,
2013-02-17 04:10:00,38.7,29.0,30.67,South,186,5.0,8.0,68,0.00,,,0.00,Weather View 32 v70,2013-02-17 10:10:00,
2013-02-17 04:15:00,38.5,29.2,30.67,South,186,5.0,8.0,69,0.00,,,0.00,Weather View 32 v70,2013-02-17 10:15:00,
2013-02-17 04:20:00,38.5,29.2,30.67,SSE,163,5.0,8.0,69,0.00,,,0.00,Weather View 32 v70,2013-02-17 10:20:00,
2013-02-17 04:25:00,38.3,29.4,30.67,South,186,5.0,8.0,70,0.00,,,0.00,Weather View 32 v70,2013-02-17 10:25:00,
2013-02-17 04:30:00,38.2,29.3,30.67,SE,141,5.0,8.0,70,0.00,,,0.00,Weather View 32 v70,2013-02-17 10:30:00,
2013-02-17 04:35:00,38.1,29.2,30.67,SSE,163,5.0,8.0,70,0.00,,,0.00,Weather View 32 v70,2013-02-17 10:35:00,
2013-02-17 04:40:00,37.9,29.3,30.67,SSE,163,3.0,8.0,71,0.00,,,0.00,Weather View 32 v70,2013-02-17 10:40:00,
2013-02-17 04:45:00,38.0,29.4,30.67,SE,141,5.0,8.0,71,0.00,,,0.00,Weather View 32 v70,2013-02-17 10:45:00,
2013-02-17 04:50:00,37.9,29.7,30.67,SSE,163,4.0,8.0,72,0.00,,,0.00,Weather View 32 v70,2013-02-17 10:50:00,
2013-02-17 04:55:00,38.0,29.8,30.67,SSE,163,3.0,8.0,72,0.00,,,0.00,Weather View 32 v70,2013-02-17 10:55:00,
2013-02-17 05:00:00,38.0,29.8,30.67,South,186,4.0,8.0,72,0.00,,,0.00,Weather View 32 v70,2013-02-17 11:00:00,
2013-02-17 05:05:00,37.9,29.7,30.67,SSE,163,5.0,7.0,72,0.00,,,0.00,Weather View 32 v70,2013-02-17 11:05:00,
2013-02-17 05:10:00,37.8,29.6,30.67,SSE,163,4.0,7.0,72,0.00,,,0.00,Weather View 32 v70,2013-02-17 11:10:00,
2013-02-17 05:15:00,37.7,29.8,30.67,SSE,163,3.0,7.0,73,0.00,,,0.00,Weather View 32 v70,2013-02-17 11:15:00,
2013-02-17 05:21:00,37.6,29.7,30.67,SE,141,3.0,7.0,73,0.00,,,0.00,Weather View 32 v70,2013-02-17 11:21:00,
2013-02-17 05:26:00,37.5,29.6,30.67,SSE,163,5.0,7.0,73,0.00,,,0.00,Weather View 32 v70,2013-02-17 11:26:00,
2013-02-17 05:31:00,37.5,30.0,30.67,SE,141,4.0,7.0,74,0.00,,,0.00,Weather View 32 v70,2013-02-17 11:31:00,
2013-02-17 05:36:00,37.5,30.0,30.67,South,186,5.0,7.0,74,0.00,,,0.00,Weather View 32 v70,2013-02-17 11:36:00,
2013-02-17 05:41:00,37.3,29.8,30.67,SSE,163,5.0,7.0,74,0.00,,,0.00,Weather View 32 v70,2013-02-17 11:41:00,
2013-02-17 05:46:00,37.2,30.0,30.67,SE,141,4.0,7.0,75,0.00,,,0.00,Weather View 32 v70,2013-02-17 11:46:00,
2013-02-17 05:51:00,37.2,30.3,30.68,SE,141,5.0,8.0,76,0.00,,,0.00,Weather View 32 v70,2013-02-17 11:51:00,
2013-02-17 05:56:00,37.2,30.3,30.67,SE,141,5.0,8.0,76,0.00,,,0.00,Weather View 32 v70,2013-02-17 11:56:00,
2013-02-17 06:01:00,37.2,30.3,30.67,SSE,163,3.0,8.0,76,0.00,,,0.00,Weather View 32 v70,2013-02-17 12:01:00,
2013-02-17 06:06:00,37.5,30.9,30.67,SSE,163,5.0,8.0,77,0.00,,,0.00,Weather View 32 v70,2013-02-17 12:06:00,
2013-02-17 06:11:00,37.9,31.0,30.67,SSE,163,5.0,8.0,76,0.00,,,0.00,Weather View 32 v70,2013-02-17 12:11:00,
2013-02-17 06:16:00,37.8,30.9,30.67,South,186,5.0,9.0,76,0.00,,,0.00,Weather View 32 v70,2013-02-17 12:16:00,
2013-02-17 06:21:00,37.8,30.9,30.67,South,186,5.0,9.0,76,0.00,,,0.00,Weather View 32 v70,2013-02-17 12:21:00,
2013-02-17 06:26:00,37.9,31.0,30.67,SSE,163,7.0,9.0,76,0.00,,,0.00,Weather View 32 v70,2013-02-17 12:26:00,
2013-02-17 06:31:00,37.9,31.0,30.67,South,186,5.0,9.0,76,0.00,,,0.00,Weather View 32 v70,2013-02-17 12:31:00,
2013-02-17 06:36:00,38.0,31.1,30.67,SE,141,6.0,9.0,76,0.00,,,0.00,Weather View 32 v70,2013-02-17 12:36:00,
2013-02-17 06:41:00,38.0,31.1,30.67,South,186,3.0,9.0,76,0.00,,,0.00,Weather View 32 v70,2013-02-17 12:41:00,
2013-02-17 06:46:00,38.0,31.4,30.67,South,186,5.0,9.0,77,0.00,,,0.00,Weather View 32 v70,2013-02-17 12:46:00,
2013-02-17 06:51:00,38.1,31.5,30.67,SSE,163,4.0,9.0,77,0.00,,,0.00,Weather View 32 v70,2013-02-17 12:51:00,
2013-02-17 06:56:00,38.0,31.4,30.67,South,186,4.0,9.0,77,0.00,,,0.00,Weather View 32 v70,2013-02-17 12:56:00,
2013-02-17 07:01:00,38.0,31.4,30.67,South,186,5.0,9.0,77,0.00,,,0.00,Weather View 32 v70,2013-02-17 13:01:00,
2013-02-17 07:06:00,38.2,31.6,30.67,South,186,4.0,9.0,77,0.00,,,0.00,Weather View 32 v70,2013-02-17 13:06:00,
2013-02-17 07:11:00,38.2,31.6,30.67,SSE,163,5.0,9.0,77,0.00,,,0.00,Weather View 32 v70,2013-02-17 13:11:00,
2013-02-17 07:16:00,38.3,31.7,30.67,South,186,5.0,9.0,77,0.00,,,0.00,Weather View 32 v70,2013-02-17 13:16:00,
2013-02-17 07:21:00,38.6,32.0,30.67,South,186,6.0,10.0,77,0.00,,,0.00,Weather View 32 v70,2013-02-17 13:21:00,
2013-02-17 07:26:00,38.6,32.0,30.67,SSE,163,6.0,10.0,77,0.00,,,0.00,Weather View 32 v70,2013-02-17 13:26:00,
2013-02-17 07:31:00,38.8,31.9,30.68,SSE,163,6.0,10.0,76,0.00,,,0.00,Weather View 32 v70,2013-02-17 13:31:00,
2013-02-17 07:36:00,39.1,32.2,30.68,SSE,163,5.0,10.0,76,0.00,,,0.00,Weather View 32 v70,2013-02-17 13:36:00,
2013-02-17 07:41:00,39.5,32.6,30.68,South,186,6.0,11.0,76,0.00,,,0.00,Weather View 32 v70,2013-02-17 13:41:00,
2013-02-17 07:46:00,39.7,32.4,30.67,South,186,8.0,11.0,75,0.00,,,0.00,Weather View 32 v70,2013-02-17 13:46:00,
2013-02-17 07:51:00,40.1,32.8,30.67,SSE,163,8.0,11.0,75,0.00,,,0.00,Weather View 32 v70,2013-02-17 13:51:00,
2013-02-17 07:56:00,40.6,33.0,30.68,SSW,208,8.0,11.0,74,0.00,,,0.00,Weather View 32 v70,2013-02-17 13:56:00,
2013-02-17 08:01:00,41.1,33.1,30.68,South,186,6.0,11.0,73,0.00,,,0.00,Weather View 32 v70,2013-02-17 14:01:00,
2013-02-17 08:06:00,41.4,33.0,30.68,SSW,208,6.0,11.0,72,0.00,,,0.00,Weather View 32 v70,2013-02-17 14:06:00,
2013-02-17 08:11:00,41.8,33.1,30.68,South,186,7.0,11.0,71,0.00,,,0.00,Weather View 32 v70,2013-02-17 14:11:00,
2013-02-17 08:16:00,42.1,33.4,30.68,SE,141,5.0,11.0,71,0.00,,,0.00,Weather View 32 v70,2013-02-17 14:16:00,
2013-02-17 08:21:00,42.6,33.5,30.68,SSW,208,6.0,11.0,70,0.00,,,0.00,Weather View 32 v70,2013-02-17 14:21:00,
2013-02-17 08:26:00,43.1,33.6,30.68,SSW,208,8.0,11.0,69,0.00,,,0.00,Weather View 32 v70,2013-02-17 14:26:00,
2013-02-17 08:31:00,43.4,33.5,30.68,SSW,208,8.0,11.0,68,0.00,,,0.00,Weather View 32 v70,2013-02-17 14:31:00,
2013-02-17 08:36:00,43.9,33.6,30.68,SSE,163,6.0,11.0,67,0.00,,,0.00,Weather View 32 v70,2013-02-17 14:36:00,
2013-02-17 08:41:00,44.5,34.2,30.68,South,186,8.0,12.0,67,0.00,,,0.00,Weather View 32 v70,2013-02-17 14:41:00,
2013-02-17 08:46:00,45.0,34.3,30.68,SSE,163,5.0,12.0,66,0.00,,,0.00,Weather View 32 v70,2013-02-17 14:46:00,
2013-02-17 08:51:00,45.6,34.5,30.68,SSW,208,8.0,12.0,65,0.00,,,0.00,Weather View 32 v70,2013-02-17 14:51:00,
2013-02-17 08:56:00,46.0,34.1,30.68,South,186,6.0,12.0,63,0.00,,,0.00,Weather View 32 v70,2013-02-17 14:56:00,
2013-02-17 09:01:00,46.6,34.7,30.68,South,186,6.0,12.0,63,0.00,,,0.00,Weather View 32 v70,2013-02-17 15:01:00,
2013-02-17 09:06:00,47.3,34.9,30.68,SSW,208,5.0,12.0,62,0.00,,,0.00,Weather View 32 v70,2013-02-17 15:06:00,
2013-02-17 09:11:00,47.5,34.7,30.69,SSW,208,7.0,12.0,61,0.00,,,0.00,Weather View 32 v70,2013-02-17 15:11:00,
2013-02-17 09:16:00,48.1,34.8,30.69,South,186,10.0,13.0,60,0.00,,,0.00,Weather View 32 v70,2013-02-17 15:16:00,
2013-02-17 09:21:00,48.3,34.6,30.69,South,186,5.0,13.0,59,0.00,,,0.00,Weather View 32 v70,2013-02-17 15:21:00,
2013-02-17 09:26:00,49.0,34.8,30.69,SSW,208,7.0,13.0,58,0.00,,,0.00,Weather View 32 v70,2013-02-17 15:26:00,
2013-02-17 09:31:00,49.5,34.9,30.68,SSW,208,9.0,14.0,57,0.00,,,0.00,Weather View 32 v70,2013-02-17 15:31:00,
2013-02-17 09:36:00,49.9,34.3,30.68,South,186,8.0,14.0,55,0.00,,,0.00,Weather View 32 v70,2013-02-17 15:36:00,
2013-02-17 09:41:00,50.3,34.3,30.68,SSW,208,11.0,14.0,54,0.00,,,0.00,Weather View 32 v70,2013-02-17 15:41:00,
2013-02-17 09:46:00,51.0,34.9,30.68,SSW,208,8.0,14.0,54,0.00,,,0.00,Weather View 32 v70,2013-02-17 15:46:00,
2013-02-17 09:51:00,51.6,34.5,30.68,SSW,208,6.0,14.0,52,0.00,,,0.00,Weather View 32 v70,2013-02-17 15:51:00,
2013-02-17 09:56:00,52.2,34.6,30.68,South,186,8.0,15.0,51,0.00,,,0.00,Weather View 32 v70,2013-02-17 15:56:00,
2013-02-17 10:01:00,52.5,34.4,30.68,SSW,208,8.0,15.0,50,0.00,,,0.00,Weather View 32 v70,2013-02-17 16:01:00,
2013-02-17 10:06:00,53.5,35.3,30.68,SSW,208,5.0,15.0,50,0.00,,,0.00,Weather View 32 v70,2013-02-17 16:06:00,
2013-02-17 10:11:00,53.8,34.5,30.67,SSW,208,9.0,15.0,48,0.00,,,0.00,Weather View 32 v70,2013-02-17 16:11:00,
2013-02-17 10:16:00,54.3,33.9,30.67,SSW,208,14.0,18.0,46,0.00,,,0.00,Weather View 32 v70,2013-02-17 16:16:00,
2013-02-17 10:21:00,54.7,33.7,30.67,South,186,10.0,18.0,45,0.00,,,0.00,Weather View 32 v70,2013-02-17 16:21:00,
2013-02-17 10:26:00,55.0,33.4,30.67,South,186,12.0,18.0,44,0.00,,,0.00,Weather View 32 v70,2013-02-17 16:26:00,
2013-02-17 10:31:00,56.0,34.3,30.67,SSW,208,11.0,18.0,44,0.00,,,0.00,Weather View 32 v70,2013-02-17 16:31:00,
2013-02-17 10:36:00,57.0,35.3,30.67,SSW,208,8.0,18.0,44,0.00,,,0.00,Weather View 32 v70,2013-02-17 16:36:00,
2013-02-17 10:41:00,57.0,33.5,30.66,SSW,208,11.0,18.0,41,0.00,,,0.00,Weather View 32 v70,2013-02-17 16:41:00,
2013-02-17 10:46:00,57.5,33.9,30.67,WSW,253,13.0,19.0,41,0.00,,,0.00,Weather View 32 v70,2013-02-17 16:46:00,
2013-02-17 10:51:00,57.6,33.4,30.67,SW,231,12.0,19.0,40,0.00,,,0.00,Weather View 32 v70,2013-02-17 16:51:00,
2013-02-17 10:56:00,58.3,34.0,30.66,SSW,208,8.0,19.0,40,0.00,,,0.00,Weather View 32 v70,2013-02-17 16:56:00,
2013-02-17 11:01:00,58.7,33.1,30.67,SW,231,11.0,19.0,38,0.00,,,0.00,Weather View 32 v70,2013-02-17 17:01:00,
2013-02-17 11:06:00,58.9,33.3,30.66,South,186,11.0,19.0,38,0.00,,,0.00,Weather View 32 v70,2013-02-17 17:06:00,
2013-02-17 11:11:00,59.2,32.9,30.66,South,186,14.0,20.0,37,0.00,,,0.00,Weather View 32 v70,2013-02-17 17:11:00,
2013-02-17 11:16:00,60.4,34.6,30.66,SW,231,8.0,20.0,38,0.00,,,0.00,Weather View 32 v70,2013-02-17 17:16:00,
2013-02-17 11:21:00,60.5,34.7,30.66,SSW,208,9.0,20.0,38,0.00,,,0.00,Weather View 32 v70,2013-02-17 17:21:00,
2013-02-17 11:26:00,61.2,35.3,30.66,SW,231,12.0,20.0,38,0.00,,,0.00,Weather View 32 v70,2013-02-17 17:26:00,
2013-02-17 11:31:00,60.5,33.4,30.66,South,186,10.0,20.0,36,0.00,,,0.00,Weather View 32 v70,2013-02-17 17:31:00,
2013-02-17 11:36:00,60.6,33.4,30.65,South,186,14.0,20.0,36,0.00,,,0.00,Weather View 32 v70,2013-02-17 17:36:00,
2013-02-17 11:41:00,61.3,34.1,30.65,South,186,10.0,20.0,36,0.00,,,0.00,Weather View 32 v70,2013-02-17 17:41:00,
2013-02-17 11:46:00,61.7,33.7,30.65,SSE,163,10.0,20.0,35,0.00,,,0.00,Weather View 32 v70,2013-02-17 17:46:00,
2013-02-17 11:51:00,61.9,33.2,30.65,SSE,163,8.0,20.0,34,0.00,,,0.00,Weather View 32 v70,2013-02-17 17:51:00,
2013-02-17 11:56:00,62.1,33.3,30.65,SSW,208,11.0,20.0,34,0.00,,,0.00,Weather View 32 v70,2013-02-17 17:56:00,
2013-02-17 12:01:00,63.0,33.4,30.64,South,186,13.0,20.0,33,0.00,,,0.00,Weather View 32 v70,2013-02-17 18:01:00,
2013-02-17 12:06:00,63.5,33.0,30.63,SSE,163,11.0,20.0,32,0.00,,,0.00,Weather View 32 v70,2013-02-17 18:06:00,
2013-02-17 12:11:00,64.2,33.7,30.63,South,186,11.0,19.0,32,0.00,,,0.00,Weather View 32 v70,2013-02-17 18:11:00,
2013-02-17 12:16:00,64.0,32.7,30.63,South,186,13.0,19.0,31,0.00,,,0.00,Weather View 32 v70,2013-02-17 18:16:00,
2013-02-17 12:21:00,64.0,32.7,30.62,SSE,163,13.0,20.0,31,0.00,,,0.00,Weather View 32 v70,2013-02-17 18:21:00,
2013-02-17 12:26:00,64.8,33.4,30.62,SSW,208,8.0,23.0,31,0.00,,,0.00,Weather View 32 v70,2013-02-17 18:26:00,
2013-02-17 12:31:00,65.0,33.6,30.61,SSW,208,11.0,23.0,31,0.00,,,0.00,Weather View 32 v70,2013-02-17 18:31:00,
2013-02-17 12:36:00,64.7,32.5,30.61,South,186,8.0,23.0,30,0.00,,,0.00,Weather View 32 v70,2013-02-17 18:36:00,
2013-02-17 12:41:00,65.2,32.9,30.60,SE,141,12.0,23.0,30,0.00,,,0.00,Weather View 32 v70,2013-02-17 18:41:00,
2013-02-17 12:46:00,66.1,33.7,30.60,South,186,8.0,23.0,30,0.00,,,0.00,Weather View 32 v70,2013-02-17 18:46:00,
2013-02-17 12:51:00,65.4,31.4,30.60,South,186,17.0,23.0,28,0.00,,,0.00,Weather View 32 v70,2013-02-17 18:51:00,
2013-02-17 12:56:00,66.0,31.9,30.60,SSE,163,16.0,23.0,28,0.00,,,0.00,Weather View 32 v70,2013-02-17 18:56:00,
2013-02-17 13:01:00,65.9,30.9,30.59,South,186,10.0,26.0,27,0.00,,,0.00,Weather View 32 v70,2013-02-17 19:01:00,
2013-02-17 13:06:00,66.6,31.5,30.59,SSW,208,9.0,26.0,27,0.00,,,0.00,Weather View 32 v70,2013-02-17 19:06:00,
2013-02-17 13:11:00,66.3,32.1,30.59,SSW,208,10.0,26.0,28,0.00,,,0.00,Weather View 32 v70,2013-02-17 19:11:00,
2013-02-17 13:16:00,65.8,28.9,30.58,SSW,208,19.0,27.0,25,0.00,,,0.00,Weather View 32 v70,2013-02-17 19:16:00,
2013-02-17 13:21:00,66.5,30.5,30.58,SSW,208,13.0,27.0,26,0.00,,,0.00,Weather View 32 v70,2013-02-17 19:21:00,
2013-02-17 13:26:00,66.6,30.6,30.57,SSW,208,14.0,27.0,26,0.00,,,0.00,Weather View 32 v70,2013-02-17 19:26:00,
2013-02-17 13:31:00,66.5,28.5,30.57,South,186,14.0,29.0,24,0.00,,,0.00,Weather View 32 v70,2013-02-17 19:31:00,
2013-02-17 13:36:00,67.3,30.2,30.57,South,186,11.0,29.0,25,0.00,,,0.00,Weather View 32 v70,2013-02-17 19:36:00,
2013-02-17 13:41:00,66.8,28.8,30.57,SSW,208,15.0,29.0,24,0.00,,,0.00,Weather View 32 v70,2013-02-17 19:41:00,
2013-02-17 13:46:00,67.1,29.0,30.56,South,186,10.0,29.0,24,0.00,,,0.00,Weather View 32 v70,2013-02-17 19:46:00,
2013-02-17 13:51:00,67.3,29.2,30.56,SSW,208,12.0,29.0,24,0.00,,,0.00,Weather View 32 v70,2013-02-17 19:51:00,
2013-02-17 13:56:00,67.1,26.9,30.56,SSW,208,18.0,31.0,22,0.00,,,0.00,Weather View 32 v70,2013-02-17 19:56:00,
2013-02-17 14:01:00,67.1,28.0,30.56,SSW,208,14.0,31.0,23,0.00,,,0.00,Weather View 32 v70,2013-02-17 20:01:00,
2013-02-17 14:06:00,67.4,28.2,30.56,SW,231,10.0,31.0,23,0.00,,,0.00,Weather View 32 v70,2013-02-17 20:06:00,
2013-02-17 14:11:00,68.2,29.9,30.56,SSW,208,11.0,31.0,24,0.00,,,0.00,Weather View 32 v70,2013-02-17 20:11:00,
2013-02-17 14:16:00,67.9,30.7,30.55,South,186,13.0,31.0,25,0.00,,,0.00,Weather View 32 v70,2013-02-17 20:16:00,
2013-02-17 14:21:00,68.2,31.0,30.54,South,186,10.0,31.0,25,0.00,,,0.00,Weather View 32 v70,2013-02-17 20:21:00,
2013-02-17 14:26:00,67.3,28.1,30.54,South,186,18.0,31.0,23,0.00,,,0.00,Weather View 32 v70,2013-02-17 20:26:00,
2013-02-17 14:31:00,67.3,29.2,30.54,South,186,18.0,31.0,24,0.00,,,0.00,Weather View 32 v70,2013-02-17 20:31:00,
2013-02-17 14:36:00,67.4,30.3,30.54,SSW,208,14.0,31.0,25,0.00,,,0.00,Weather View 32 v70,2013-02-17 20:36:00,
2013-02-17 14:41:00,67.8,32.5,30.54,SE,141,9.0,31.0,27,0.00,,,0.00,Weather View 32 v70,2013-02-17 20:41:00,
2013-02-17 14:46:00,67.7,31.5,30.54,SSE,163,10.0,31.0,26,0.00,,,0.00,Weather View 32 v70,2013-02-17 20:46:00,
2013-02-17 14:51:00,67.1,31.9,30.53,South,186,17.0,31.0,27,0.00,,,0.00,Weather View 32 v70,2013-02-17 20:51:00,
2013-02-17 14:56:00,67.2,32.0,30.53,South,186,19.0,29.0,27,0.00,,,0.00,Weather View 32 v70,2013-02-17 20:56:00,
2013-02-17 15:01:00,67.7,32.4,30.53,SSW,208,8.0,29.0,27,0.00,,,0.00,Weather View 32 v70,2013-02-17 21:01:00,
2013-02-17 15:06:00,67.3,32.1,30.53,SSE,163,13.0,29.0,27,0.00,,,0.00,Weather View 32 v70,2013-02-17 21:06:00,
2013-02-17 15:11:00,67.6,32.4,30.53,South,186,10.0,29.0,27,0.00,,,0.00,Weather View 32 v70,2013-02-17 21:11:00,
2013-02-17 15:16:00,67.5,32.3,30.53,SSE,163,14.0,29.0,27,0.00,,,0.00,Weather View 32 v70,2013-02-17 21:16:00,
2013-02-17 15:21:00,68.0,33.6,30.52,South,186,11.0,29.0,28,0.00,,,0.00,Weather View 32 v70,2013-02-17 21:21:00,
2013-02-17 15:26:00,67.3,32.1,30.53,South,186,12.0,28.0,27,0.00,,,0.00,Weather View 32 v70,2013-02-17 21:26:00,
2013-02-17 15:31:00,67.3,32.1,30.52,SSW,208,21.0,28.0,27,0.00,,,0.00,Weather View 32 v70,2013-02-17 21:31:00,
2013-02-17 15:36:00,67.3,32.1,30.52,South,186,11.0,28.0,27,0.00,,,0.00,Weather View 32 v70,2013-02-17 21:36:00,
2013-02-17 15:41:00,66.8,31.7,30.52,SSE,163,18.0,28.0,27,0.00,,,0.00,Weather View 32 v70,2013-02-17 21:41:00,
2013-02-17 15:46:00,67.1,32.8,30.52,SSW,208,19.0,28.0,28,0.00,,,0.00,Weather View 32 v70,2013-02-17 21:46:00,
2013-02-17 15:51:00,66.8,31.7,30.52,South,186,16.0,28.0,27,0.00,,,0.00,Weather View 32 v70,2013-02-17 21:51:00,
2013-02-17 15:56:00,66.9,31.8,30.52,SSW,208,18.0,28.0,27,0.00,,,0.00,Weather View 32 v70,2013-02-17 21:56:00,
2013-02-17 16:01:00,67.0,31.8,30.51,South,186,15.0,28.0,27,0.00,,,0.00,Weather View 32 v70,2013-02-17 22:01:00,
2013-02-17 16:06:00,67.0,31.8,30.51,South,186,19.0,28.0,27,0.00,,,0.00,Weather View 32 v70,2013-02-17 22:06:00,
2013-02-17 16:11:00,67.2,32.9,30.51,SSE,163,10.0,28.0,28,0.00,,,0.00,Weather View 32 v70,2013-02-17 22:11:00,
2013-02-17 16:16:00,67.1,32.8,30.51,SSE,163,18.0,28.0,28,0.00,,,0.00,Weather View 32 v70,2013-02-17 22:16:00,
2013-02-17 16:21:00,66.8,32.6,30.51,South,186,14.0,28.0,28,0.00,,,0.00,Weather View 32 v70,2013-02-17 22:21:00,
2013-02-17 16:26:00,66.9,32.7,30.51,South,186,14.0,28.0,28,0.00,,,0.00,Weather View 32 v70,2013-02-17 22:26:00,
2013-02-17 16:31:00,67.1,32.8,30.50,SSE,163,16.0,28.0,28,0.00,,,0.00,Weather View 32 v70,2013-02-17 22:31:00,
2013-02-17 16:36:00,66.9,32.7,30.50,SSW,208,14.0,28.0,28,0.00,,,0.00,Weather View 32 v70,2013-02-17 22:36:00,
2013-02-17 16:41:00,66.9,33.5,30.51,SSE,163,11.0,28.0,29,0.00,,,0.00,Weather View 32 v70,2013-02-17 22:41:00,
2013-02-17 16:46:00,67.0,32.7,30.51,South,186,14.0,27.0,28,0.00,,,0.00,Weather View 32 v70,2013-02-17 22:46:00,
2013-02-17 16:51:00,66.7,31.6,30.51,SSW,208,12.0,27.0,27,0.00,,,0.00,Weather View 32 v70,2013-02-17 22:51:00,
2013-02-17 16:56:00,66.7,32.5,30.50,SSW,208,13.0,27.0,28,0.00,,,0.00,Weather View 32 v70,2013-02-17 22:56:00,
2013-02-17 17:01:00,66.6,33.3,30.50,SSW,208,14.0,27.0,29,0.00,,,0.00,Weather View 32 v70,2013-02-17 23:01:00,
2013-02-17 17:16:00,66.1,32.8,30.50,SSW,208,18.0,27.0,29,0.00,,,0.00,Weather View 32 v70,2013-02-17 23:16:00,
2013-02-17 17:20:00,66.1,32.8,30.50,SSW,208,11.0,27.0,29,0.00,,,0.00,Weather View 32 v70,2013-02-17 23:20:00,
2013-02-17 17:25:00,66.0,32.8,30.49,SSE,163,13.0,27.0,29,0.00,,,0.00,Weather View 32 v70,2013-02-17 23:25:00,
2013-02-17 17:30:00,65.9,32.7,30.50,South,186,13.0,27.0,29,0.00,,,0.00,Weather View 32 v70,2013-02-17 23:30:00,
2013-02-17 17:36:00,65.7,32.5,30.50,South,186,13.0,27.0,29,0.00,,,0.00,Weather View 32 v70,2013-02-17 23:36:00,
2013-02-17 17:40:00,65.4,33.1,30.50,South,186,13.0,27.0,30,0.00,,,0.00,Weather View 32 v70,2013-02-17 23:40:00,
2013-02-17 17:45:00,65.3,32.2,30.49,SSW,208,8.0,27.0,29,0.00,,,0.00,Weather View 32 v70,2013-02-17 23:45:00,
2013-02-17 17:50:00,65.1,32.0,30.49,South,186,14.0,27.0,29,0.00,,,0.00,Weather View 32 v70,2013-02-17 23:50:00,
2013-02-17 17:55:00,64.9,32.7,30.49,South,186,18.0,27.0,30,0.00,,,0.00,Weather View 32 v70,2013-02-17 23:55:00,
2013-02-17 18:01:00,64.5,32.3,30.50,South,186,12.0,27.0,30,0.00,,,0.00,Weather View 32 v70,2013-02-18 00:01:00,
2013-02-17 18:05:00,64.3,33.0,30.50,SSE,163,11.0,27.0,31,0.00,,,0.00,Weather View 32 v70,2013-02-18 00:05:00,
2013-02-17 18:11:00,64.1,32.8,30.50,South,186,11.0,27.0,31,0.00,,,0.00,Weather View 32 v70,2013-02-18 00:11:00,
2013-02-17 18:16:00,63.6,33.1,30.49,SSE,163,6.0,27.0,32,0.00,,,0.00,Weather View 32 v70,2013-02-18 00:16:00,
2013-02-17 18:21:00,63.6,33.1,30.49,SSE,163,13.0,27.0,32,0.00,,,0.00,Weather View 32 v70,2013-02-18 00:21:00,
2013-02-17 18:26:00,63.4,33.0,30.50,South,186,7.0,27.0,32,0.00,,,0.00,Weather View 32 v70,2013-02-18 00:26:00,
2013-02-17 18:31:00,63.2,32.8,30.50,SSW,208,6.0,27.0,32,0.00,,,0.00,Weather View 32 v70,2013-02-18 00:31:00,
2013-02-17 18:36:00,63.3,32.9,30.49,SE,141,8.0,25.0,32,0.00,,,0.00,Weather View 32 v70,2013-02-18 00:36:00,
2013-02-17 18:41:00,62.7,33.1,30.49,South,186,6.0,24.0,33,0.00,,,0.00,Weather View 32 v70,2013-02-18 00:41:00,
2013-02-17 18:46:00,62.4,33.6,30.49,South,186,8.0,23.0,34,0.00,,,0.00,Weather View 32 v70,2013-02-18 00:46:00,
2013-02-17 18:51:00,61.7,33.7,30.49,South,186,6.0,23.0,35,0.00,,,0.00,Weather View 32 v70,2013-02-18 00:51:00,
2013-02-17 18:56:00,61.1,33.9,30.50,SE,141,5.0,23.0,36,0.00,,,0.00,Weather View 32 v70,2013-02-18 00:56:00,
2013-02-17 19:01:00,61.0,33.8,30.50,SSW,208,6.0,19.0,36,0.00,,,0.00,Weather View 32 v70,2013-02-18 01:01:00,
2013-02-17 19:06:00,60.6,34.1,30.49,SSE,163,6.0,19.0,37,0.00,,,0.00,Weather View 32 v70,2013-02-18 01:06:00,
2013-02-17 19:11:00,60.1,34.4,30.49,SSW,208,8.0,19.0,38,0.00,,,0.00,Weather View 32 v70,2013-02-18 01:11:00,
2013-02-17 19:16:00,59.9,34.8,30.49,SSE,163,8.0,19.0,39,0.00,,,0.00,Weather View 32 v70,2013-02-18 01:16:00,
2013-02-17 19:21:00,60.0,34.9,30.50,SSE,163,6.0,19.0,39,0.00,,,0.00,Weather View 32 v70,2013-02-18 01:21:00,
2013-02-17 19:26:00,60.0,34.9,30.50,SSE,163,8.0,17.0,39,0.00,,,0.00,Weather View 32 v70,2013-02-18 01:26:00,
2013-02-17 19:31:00,60.0,34.9,30.50,SSE,163,7.0,17.0,39,0.00,,,0.00,Weather View 32 v70,2013-02-18 01:31:00,
2013-02-17 19:36:00,59.5,34.5,30.49,SE,141,6.0,16.0,39,0.00,,,0.00,Weather View 32 v70,2013-02-18 01:36:00,
2013-02-17 19:41:00,59.2,34.8,30.49,South,186,7.0,14.0,40,0.00,,,0.00,Weather View 32 v70,2013-02-18 01:41:00,
2013-02-17 19:46:00,59.2,34.8,30.49,South,186,8.0,14.0,40,0.00,,,0.00,Weather View 32 v70,2013-02-18 01:46:00,
2013-02-17 19:51:00,59.0,35.3,30.50,SSE,163,6.0,14.0,41,0.00,,,0.00,Weather View 32 v70,2013-02-18 01:51:00,
2013-02-17 19:56:00,58.8,35.1,30.49,SSE,163,6.0,14.0,41,0.00,,,0.00,Weather View 32 v70,2013-02-18 01:56:00,
2013-02-17 20:01:00,58.3,35.3,30.49,SSE,163,6.0,14.0,42,0.00,,,0.00,Weather View 32 v70,2013-02-18 02:01:00,
2013-02-17 20:06:00,58.3,35.3,30.49,SSW,208,8.0,14.0,42,0.00,,,0.00,Weather View 32 v70,2013-02-18 02:06:00,
2013-02-17 20:11:00,58.3,35.3,30.49,South,186,7.0,14.0,42,0.00,,,0.00,Weather View 32 v70,2013-02-18 02:11:00,
2013-02-17 20:16:00,58.0,35.0,30.49,South,186,10.0,14.0,42,0.00,,,0.00,Weather View 32 v70,2013-02-18 02:16:00,
2013-02-17 20:21:00,58.0,35.0,30.49,South,186,11.0,14.0,42,0.00,,,0.00,Weather View 32 v70,2013-02-18 02:21:00,
2013-02-17 20:26:00,58.1,35.1,30.49,SSE,163,5.0,14.0,42,0.00,,,0.00,Weather View 32 v70,2013-02-18 02:26:00,
2013-02-17 20:31:00,58.6,35.5,30.49,SSW,208,8.0,14.0,42,0.00,,,0.00,Weather View 32 v70,2013-02-18 02:31:00,
2013-02-17 20:36:00,58.4,35.3,30.49,SSE,163,9.0,14.0,42,0.00,,,0.00,Weather View 32 v70,2013-02-18 02:36:00,
2013-02-17 20:41:00,58.2,35.8,30.49,SSE,163,7.0,14.0,43,0.00,,,0.00,Weather View 32 v70,2013-02-18 02:41:00,
2013-02-17 20:46:00,58.3,35.9,30.49,SSW,208,10.0,14.0,43,0.00,,,0.00,Weather View 32 v70,2013-02-18 02:46:00,
2013-02-17 20:51:00,58.2,35.8,30.49,South,186,8.0,15.0,43,0.00,,,0.00,Weather View 32 v70,2013-02-18 02:51:00,
2013-02-17 20:56:00,58.0,35.6,30.49,SSE,163,9.0,15.0,43,0.00,,,0.00,Weather View 32 v70,2013-02-18 02:56:00,
2013-02-17 21:01:00,58.2,36.3,30.49,SSW,208,10.0,15.0,44,0.00,,,0.00,Weather View 32 v70,2013-02-18 03:01:00,
2013-02-17 21:06:00,58.0,36.2,30.50,SSE,163,9.0,15.0,44,0.00,,,0.00,Weather View 32 v70,2013-02-18 03:06:00,
2013-02-17 21:11:00,58.0,36.2,30.50,South,186,11.0,16.0,44,0.00,,,0.00,Weather View 32 v70,2013-02-18 03:11:00,
2013-02-17 21:16:00,58.5,37.2,30.49,South,186,9.0,19.0,45,0.00,,,0.00,Weather View 32 v70,2013-02-18 03:16:00,
2013-02-17 21:21:00,58.6,37.8,30.49,South,186,14.0,19.0,46,0.00,,,0.00,Weather View 32 v70,2013-02-18 03:21:00,
2013-02-17 21:26:00,58.6,38.4,30.49,SSE,163,8.0,19.0,47,0.00,,,0.00,Weather View 32 v70,2013-02-18 03:26:00,
2013-02-17 21:31:00,58.6,38.9,30.50,South,186,9.0,19.0,48,0.00,,,0.00,Weather View 32 v70,2013-02-18 03:31:00,
2013-02-17 21:36:00,58.7,39.5,30.50,SSE,163,11.0,19.0,49,0.00,,,0.00,Weather View 32 v70,2013-02-18 03:36:00,
2013-02-17 21:41:00,58.7,40.1,30.50,South,186,11.0,19.0,50,0.00,,,0.00,Weather View 32 v70,2013-02-18 03:41:00,
2013-02-17 21:46:00,58.6,40.5,30.49,SSE,163,10.0,19.0,51,0.00,,,0.00,Weather View 32 v70,2013-02-18 03:46:00,
2013-02-17 21:51:00,58.8,41.2,30.49,SSE,163,10.0,19.0,52,0.00,,,0.00,Weather View 32 v70,2013-02-18 03:51:00,
2013-02-17 21:56:00,58.9,41.3,30.49,South,186,8.0,21.0,52,0.00,,,0.00,Weather View 32 v70,2013-02-18 03:56:00,
2013-02-17 22:01:00,59.0,41.9,30.49,South,186,14.0,24.0,53,0.00,,,0.00,Weather View 32 v70,2013-02-18 04:01:00,
2013-02-17 22:06:00,59.0,42.3,30.49,South,186,10.0,24.0,54,0.00,,,0.00,Weather View 32 v70,2013-02-18 04:06:00,
2013-02-17 22:11:00,58.9,42.7,30.49,South,186,18.0,24.0,55,0.00,,,0.00,Weather View 32 v70,2013-02-18 04:11:00,
2013-02-17 22:16:00,58.6,42.9,30.49,South,186,9.0,24.0,56,0.00,,,0.00,Weather View 32 v70,2013-02-18 04:16:00,
2013-02-17 22:21:00,58.7,43.0,30.49,South,186,11.0,24.0,56,0.00,,,0.00,Weather View 32 v70,2013-02-18 04:21:00,
2013-02-17 22:26:00,58.5,43.7,30.49,South,186,7.0,24.0,58,0.00,,,0.00,Weather View 32 v70,2013-02-18 04:26:00,
2013-02-17 22:31:00,58.4,43.6,30.49,SSW,208,11.0,24.0,58,0.00,,,0.00,Weather View 32 v70,2013-02-18 04:31:00,
2013-02-17 22:36:00,58.5,43.7,30.49,SSW,208,16.0,24.0,58,0.00,,,0.00,Weather View 32 v70,2013-02-18 04:36:00,
2013-02-17 22:41:00,58.6,44.3,30.49,SSE,163,14.0,24.0,59,0.00,,,0.00,Weather View 32 v70,2013-02-18 04:41:00,
2013-02-17 22:46:00,58.4,44.5,30.49,South,186,13.0,24.0,60,0.00,,,0.00,Weather View 32 v70,2013-02-18 04:46:00,
2013-02-17 22:51:00,58.4,44.5,30.49,SSW,208,18.0,24.0,60,0.00,,,0.00,Weather View 32 v70,2013-02-18 04:51:00,
2013-02-17 22:56:00,58.4,44.5,30.49,SE,141,17.0,24.0,60,0.00,,,0.00,Weather View 32 v70,2013-02-18 04:56:00,
2013-02-17 23:00:00,58.3,44.4,30.49,South,186,14.0,26.0,60,0.00,,,0.00,Weather View 32 v70,2013-02-18 05:00:00,
2013-02-17 23:05:00,58.4,45.0,30.48,SE,141,15.0,26.0,61,0.00,,,0.00,Weather View 32 v70,2013-02-18 05:05:00,
2013-02-17 23:10:00,58.3,44.9,30.49,South,186,12.0,31.0,61,0.00,,,0.00,Weather View 32 v70,2013-02-18 05:10:00,
2013-02-17 23:15:00,58.2,45.2,30.49,SSE,163,11.0,31.0,62,0.00,,,0.00,Weather View 32 v70,2013-02-18 05:15:00,
2013-02-17 23:20:00,58.0,45.0,30.49,South,186,18.0,31.0,62,0.00,,,0.00,Weather View 32 v70,2013-02-18 05:20:00,
2013-02-17 23:25:00,58.1,45.1,30.49,SSW,208,19.0,31.0,62,0.00,,,0.00,Weather View 32 v70,2013-02-18 05:25:00,
2013-02-17 23:30:00,57.9,44.9,30.49,SSE,163,10.0,31.0,62,0.00,,,0.00,Weather View 32 v70,2013-02-18 05:30:00,
2013-02-17 23:35:00,57.8,45.3,30.49,South,186,17.0,31.0,63,0.00,,,0.00,Weather View 32 v70,2013-02-18 05:35:00,
2013-02-17 23:40:00,57.8,45.3,30.49,SSE,163,20.0,31.0,63,0.00,,,0.00,Weather View 32 v70,2013-02-18 05:40:00,
2013-02-17 23:45:00,57.6,45.1,30.49,South,186,16.0,31.0,63,0.00,,,0.00,Weather View 32 v70,2013-02-18 05:45:00,
2013-02-17 23:50:00,57.3,45.2,30.49,SSE,163,10.0,31.0,64,0.00,,,0.00,Weather View 32 v70,2013-02-18 05:50:00,
2013-02-17 23:55:00,57.1,45.4,30.48,SSW,208,13.0,31.0,65,0.00,,,0.00,Weather View 32 v70,2013-02-18 05:55:00,